SCP
0 0 0 0 0 0 0 0 0 0 0 0 0 0 0 0 0 0 1 1 1 1 1 1 1 1 0 0 1 1 1 1 0 0 0 0 0 0 0 0 0 0 0 0
0 0 0 0 0 0 0 0 0 0 0 0 0 0 0 0 0 0 1 1 1 1 1 1 1 1 1 0 1 1 1 1 1 0 0 0 0 0 0 0 0 0 0 0
0 0 0 0 0 0 0 0 0 0 0 0 0 0 1 0 0 0 1 1 1 1 1 1 1 1 1 1 1 1 1 1 1 1 0 0 0 0 0 0 0 0 0 0
0 0 0 0 0 0 0 0 0 0 0 0 0 0 0 0 0 0 1 1 1 0 1 1 1 1 1 1 1 1 1 1 1 1 1 0 0 0 0 0 0 0 0 0
0 0 0 0 0 0 0 0 0 0 0 0 0 0 0 0 0 0 0 0 0 0 1 1 1 1 1 1 1 1 1 1 1 1 1 1 1 1 0 0 0 0 0 0
0 0 0 0 0 0 0 0 0 0 0 0 0 0 0 0 0 0 0 0 0 0 1 1 1 1 1 1 1 1 1 1 1 1 1 1 1 1 1 0 0 0 0 0
0 0 0 0 0 0 0 0 0 0 0 0 0 0 1 1 1 1 0 0 0 0 1 1 1 1 1 1 1 1 1 1 1 1 1 1 1 1 1 1 0 0 0 0
0 0 0 0 0 0 0 0 0 0 0 0 0 0 1 1 1 1 1 0 0 0 1 1 1 1 1 1 1 1 1 1 1 1 1 1 1 1 1 1 1 0 0 0
0 0 0 0 0 0 0 0 0 0 0 0 0 0 1 1 1 1 1 1 0 1 1 1 1 1 1 1 1 1 1 1 1 1 1 1 1 1 1 1 1 1 0 0
0 0 0 0 0 0 0 0 0 0 0 0 0 0 1 1 1 1 1 1 1 1 1 1 1 1 1 1 1 1 1 1 1 1 1 1 1 1 1 1 1 1 1 1
0 0 0 0 0 0 0 0 0 0 0 0 0 0 0 0 0 0 0 0 1 1 1 1 1 1 1 1 1 1 1 1 1 1 1 1 1 1 1 1 1 1 1 1
0 0 0 0 0 0 0 0 0 0 0 0 0 0 0 0 0 0 0 0 1 1 1 1 1 1 1 1 1 1 1 1 1 1 1 1 1 1 1 1 1 0 0 0
0 0 0 0 0 0 0 0 0 0 0 0 0 0 0 0 0 0 0 0 0 1 1 1 1 1 0 0 1 1 1 1 1 1 1 1 1 1 1 1 0 0 0 0
0 0 0 0 0 0 0 0 0 0 0 0 0 0 0 0 0 0 0 0 0 0 0 1 1 1 0 0 0 0 0 0 1 1 1 1 1 1 1 1 1 0 0 0
0 0 0 0 0 0 0 0 0 0 0 0 0 0 0 0 0 0 0 0 0 0 0 0 0 0 0 1 0 0 0 0 0 1 1 1 1 1 1 1 1 0 0 0
0 0 0 0 0 0 0 0 0 0 0 0 0 0 0 0 0 0 0 0 0 0 0 0 0 0 0 1 1 0 0 0 0 0 1 1 1 1 1 1 1 1 0 0
0 0 0 0 0 0 0 0 0 0 0 0 0 0 0 0 0 0 0 0 0 0 0 0 0 0 0 1 1 1 0 0 0 0 1 1 1 1 1 1 1 0 0 0
0 0 0 0 0 0 0 0 0 0 0 0 0 0 0 0 0 0 0 0 0 0 0 0 0 0 0 0 1 1 1 0 0 0 1 1 1 1 1 1 1 0 0 0
0 0 0 0 0 0 0 0 0 0 0 0 0 0 0 0 0 0 0 0 0 0 0 0 0 0 0 1 1 1 1 1 1 1 1 1 1 1 1 0 0 0 0 0
0 0 0 0 0 0 0 0 0 0 0 0 0 0 0 0 0 0 0 0 0 0 0 0 0 0 0 1 1 1 1 1 1 1 0 0 0 0 0 0 0 0 0 0
0 0 0 0 0 0 0 0 0 0 0 0 0 0 0 0 0 0 0 0 0 0 0 0 0 0 0 0 0 0 0 0 0 0 0 0 0 0 0 0 0 0 0 0
0 0 0 0 0 0 0 0 0 0 0 0 0 0 0 0 0 0 0 0 0 0 0 0 0 0 0 0 0 0 0 0 0 0 0 0 0 0 0 0 0 0 0 0
0 0 0 0 0 0 0 0 0 0 0 0 0 0 0 0 0 0 0 0 0 0 0 0 0 0 0 0 0 0 0 0 0 0 0 0 0 0 0 0 0 0 0 0
0 0 0 0 0 0 0 0 0 0 0 0 0 0 0 0 0 0 0 0 0 0 0 0 0 0 0 0 0 0 0 0 0 0 0 0 0 0 0 0 0 0 0 0
0 0 0 0 0 0 0 0 0 0 0 0 0 0 0 0 0 0 0 0 0 0 0 0 0 0 0 0 0 0 0 0 0 0 0 0 0 0 0 0 0 0 0 0
0 0 0 0 0 0 0 0 0 0 0 0 0 0 0 0 0 0 0 0 0 0 0 0 0 0 0 0 0 0 0 0 0 0 0 0 0 0 0 0 0 0 0 0
0 0 0 0 0 0 0 0 0 0 0 0 0 0 0 0 0 0 0 0 0 0 0 0 0 0 0 0 0 0 0 0 0 0 0 0 0 0 0 0 0 0 0 0
Wind_Speed
7 5 5 7 8 8 10 10 10 6 6 4 4 4 3 4 5 5 5 5 5 5 5 5 5 5 4 4 4 4 4 5 4 4 4 4 3 4 4 4 3 3 3 3
8 7 8 9 9 9 10 10 9 8 6 2 3 4 4 4 5 5 5 4 4 4 4 5 5 4 4 4 4 4 4 4 3 3 4 4 4 4 3 3 3 3 3 3
9 7 9 11 9 10 9 8 9 9 4 4 5 5 4 5 5 4 4 4 4 3 3 3 4 4 4 3 3 4 4 3 3 4 4 4 4 4 4 4 4 4 4 4
7 6 11 2 1 3 6 6 6 4 3 3 3 4 4 4 4 4 3 3 3 3 2 2 3 4 3 3 3 4 4 4 4 4 4 4 4 4 4 4 4 4 4 4
7 10 9 5 3 4 5 4 3 4 3 3 4 6 6 4 3 3 3 3 2 2 2 2 2 3 4 4 4 4 3 3 4 4 4 4 4 4 4 4 4 4 4 4
8 10 9 1 3 2 5 5 2 3 3 4 6 6 5 4 2 3 3 3 2 2 2 2 1 2 4 4 4 4 3 3 3 4 4 4 4 4 4 3 4 4 3 4
11 10 5 3 2 5 7 1 3 2 3 3 3 2 4 3 3 3 3 2 2 1 1 1 1 2 3 3 4 3 3 3 3 4 4 4 4 3 3 4 4 4 3 3
9 11 5 4 3 3 3 3 2 2 1 1 3 4 3 3 3 2 2 2 1 1 0 1 1 2 2 2 2 2 3 3 3 4 4 3 3 4 4 4 4 4 3 4
4 2 3 1 0 2 1 2 2 1 2 3 2 2 3 2 2 1 1 1 0 1 0 0 1 2 2 2 2 2 3 4 4 4 4 4 4 4 4 4 4 4 4 4
4 2 1 1 1 1 0 1 1 1 2 3 2 1 1 1 1 1 0 1 1 1 1 1 1 2 2 2 2 3 4 4 4 4 4 4 4 4 4 4 4 4 4 4
5 3 2 2 1 1 1 1 1 1 2 2 2 1 1 1 1 1 1 1 2 2 1 1 1 2 2 2 2 3 4 4 4 4 3 3 3 2 3 2 2 3 3 3
4 3 3 1 1 0 1 1 2 2 2 2 2 2 2 2 2 2 2 2 2 3 2 2 2 1 1 1 2 2 3 4 3 3 3 3 3 2 1 2 2 3 2 3
3 3 2 1 1 1 2 1 1 2 2 2 2 2 2 2 2 3 3 3 3 3 3 2 2 2 2 2 2 3 3 3 3 3 3 4 4 4 3 2 3 4 4 3
2 3 3 2 2 2 2 2 2 2 2 2 2 2 2 2 3 3 3 3 3 3 3 3 3 3 3 3 3 3 4 3 4 4 4 4 4 4 4 4 3 3 4 6
4 4 4 3 3 3 3 3 3 3 2 2 2 2 2 3 3 3 3 3 3 4 4 4 3 3 3 3 3 4 4 3 3 4 4 4 4 4 4 4 4 3 2 4
3 3 3 3 3 3 3 4 4 3 3 3 3 3 3 3 3 3 4 4 4 4 4 4 4 3 3 4 4 4 3 4 5 5 4 4 4 4 4 4 4 3 3 3
4 3 2 2 3 3 3 3 3 3 3 3 3 3 3 3 4 4 4 4 4 4 4 4 4 4 4 4 5 4 4 3 5 6 5 4 4 4 4 3 3 3 3 2
3 2 2 3 3 3 3 3 3 3 3 3 3 4 4 4 4 4 4 4 4 4 4 4 4 4 5 4 4 4 4 4 4 4 4 3 4 4 3 3 3 4 3 3
2 2 2 2 3 3 3 3 3 4 4 4 4 5 5 5 5 5 4 5 5 5 4 4 4 5 5 4 4 4 5 4 4 4 4 3 4 4 3 3 3 3 3 3
1 1 2 2 3 3 3 3 3 3 4 4 4 5 5 5 5 5 5 5 5 4 4 4 5 5 5 4 4 5 5 5 4 4 4 4 4 4 4 4 4 3 3 3
1 2 3 3 3 3 3 4 4 4 4 4 5 5 6 6 5 5 5 5 4 3 4 4 5 4 3 2 4 5 5 5 4 4 4 4 4 4 4 4 3 3 3 3
3 3 4 3 3 3 3 3 4 5 5 5 5 5 5 5 5 5 5 4 4 2 4 4 4 1 2 3 4 5 4 4 4 4 4 4 4 4 3 3 3 3 3 3
3 3 3 4 4 4 4 4 5 4 5 5 5 5 6 5 5 5 4 3 3 2 4 3 2 1 1 4 5 4 4 4 3 3 3 3 3 3 3 3 3 3 3 3
3 3 4 4 4 4 4 5 5 4 5 5 4 5 5 5 4 4 3 2 2 2 3 1 1 1 4 4 4 3 3 3 3 3 3 3 3 3 3 3 3 3 2 3
4 4 4 4 4 3 3 4 4 4 5 4 4 4 4 3 4 3 3 2 1 2 3 1 3 4 4 4 3 3 2 2 2 2 2 3 3 2 2 2 2 2 3 2
3 3 3 3 3 4 3 3 3 3 3 3 3 3 3 2 2 2 2 2 1 2 2 1 1 3 3 2 2 2 2 2 3 3 3 3 2 2 2 2 2 2 2 2
4 3 2 2 2 3 3 3 3 3 3 3 3 2 2 2 2 1 1 1 1 1 1 1 1 1 2 2 2 2 2 2 2 2 2 2 2 1 1 2 2 2 2 2
Wind_Direction
263 269 253 246 239 233 243 260 269 264 251 216 193 171 148 146 147 143 140 142 145 147 147 152 154 159 167 175 171 174 181 189 194 199 198 203 208 212 215 222 227 227 240 242
241 237 241 247 246 241 243 252 255 255 250 209 154 155 161 161 159 154 146 143 142 149 152 157 158 158 162 176 176 181 191 197 198 203 204 210 216 215 214 222 231 232 238 245
244 232 242 240 242 241 239 246 252 253 242 180 186 179 173 165 163 156 147 143 148 152 159 166 164 163 172 180 182 188 196 203 206 208 211 217 222 215 219 225 229 234 240 244
248 232 243 255 52 257 248 248 254 258 228 196 184 169 158 155 151 138 133 138 142 151 162 171 169 169 176 186 187 197 203 211 215 217 220 222 222 226 228 232 234 236 241 244
245 240 243 212 186 231 239 238 241 227 206 178 152 156 154 135 128 128 126 125 133 155 161 160 173 170 174 190 191 201 206 214 218 220 221 220 223 229 230 232 235 241 242 241
238 253 257 173 124 210 237 221 175 188 187 175 180 206 141 124 129 118 115 120 133 154 148 140 163 185 192 196 201 215 222 224 222 223 224 224 227 232 234 233 233 240 239 240
236 244 254 73 133 206 232 119 116 166 175 187 200 7 89 125 127 122 109 108 120 134 117 109 161 207 218 215 221 227 229 229 224 225 227 225 226 226 222 228 233 239 241 244
235 240 232 93 179 234 24 74 107 131 136 122 102 93 107 121 130 136 125 120 133 132 105 95 212 225 232 239 247 236 231 231 230 228 231 220 219 218 219 225 225 227 232 240
262 289 55 105 248 36 44 108 94 101 112 128 131 130 121 125 124 111 91 58 221 193 197 211 255 258 257 266 259 241 230 229 230 228 225 218 218 217 216 219 233 230 228 234
241 208 166 185 216 201 179 130 89 92 127 135 145 164 159 151 146 114 46 293 274 240 247 268 275 272 275 271 251 236 232 231 230 228 224 219 226 220 221 223 230 238 240 240
239 234 218 199 194 177 171 163 146 132 142 143 163 210 245 238 238 271 284 295 282 269 262 275 296 289 284 275 253 240 239 237 236 230 224 224 224 236 234 226 233 244 252 251
249 228 246 213 162 199 211 193 183 183 189 193 201 223 241 255 270 276 276 274 269 268 269 275 285 284 280 267 255 245 238 239 243 236 222 225 216 201 70 220 170 198 242 259
290 296 287 269 239 262 272 262 240 232 231 228 239 254 261 264 259 261 264 267 270 273 273 272 273 278 277 258 248 253 257 252 258 255 233 228 225 217 208 182 174 190 201 207
271 259 234 224 245 272 272 259 242 232 236 240 251 261 264 265 262 260 266 270 271 268 266 266 271 282 287 274 262 256 261 254 247 250 243 233 228 225 227 227 213 203 190 189
249 245 237 229 244 253 253 244 231 223 222 235 244 252 261 266 265 269 274 277 270 261 260 261 265 275 277 267 260 261 264 265 261 261 250 235 231 227 229 231 233 222 196 177
258 243 223 215 226 239 242 239 238 237 237 243 249 256 265 273 275 276 272 269 260 258 261 263 264 271 268 262 263 261 259 258 258 254 247 238 233 234 232 227 227 225 217 212
240 230 228 231 239 246 256 262 261 259 255 256 262 267 272 274 273 273 273 272 265 262 262 264 267 268 261 257 260 264 265 253 242 246 243 236 234 238 238 237 240 238 229 200
251 256 264 260 255 262 275 275 273 272 270 269 268 267 268 268 271 273 273 271 262 260 264 266 269 268 263 261 265 270 265 260 254 253 250 245 245 243 235 231 235 240 238 193
227 230 242 259 267 271 272 272 275 275 272 268 268 269 268 268 266 264 265 264 259 258 264 271 266 258 261 266 272 261 259 256 253 249 245 229 234 243 241 239 240 237 241 236
246 239 241 255 261 264 267 271 275 272 273 272 272 272 273 273 271 265 260 259 263 280 280 275 265 263 263 267 274 266 261 255 251 245 239 236 233 236 244 245 242 237 237 239
337 299 278 265 264 267 271 276 272 273 275 274 275 277 278 278 274 268 264 264 267 277 275 258 252 257 259 281 259 259 255 250 245 242 240 239 236 237 240 245 247 244 241 242
322 318 311 299 280 279 284 281 276 275 273 274 278 280 280 277 271 264 259 268 275 270 264 262 260 287 303 276 256 255 254 252 248 244 241 239 240 241 247 252 253 250 243 239
313 308 299 293 289 287 284 281 279 275 274 277 279 279 280 283 282 275 268 264 270 276 270 274 318 7 275 257 259 257 255 253 255 251 249 249 248 246 248 251 254 255 257 253
305 302 296 289 284 284 287 287 285 283 281 279 275 275 275 274 272 268 270 251 248 249 261 274 138 218 240 251 257 260 259 255 254 254 255 254 252 253 251 250 255 254 249 255
292 286 284 282 278 281 279 272 269 271 277 283 288 284 276 273 276 285 289 276 230 225 248 182 177 199 229 249 250 258 264 265 269 271 264 259 258 257 253 255 256 256 255 246
294 290 293 294 304 302 300 298 298 299 296 294 295 301 304 301 288 280 269 249 230 234 257 238 195 211 236 247 249 253 256 244 232 238 250 258 257 260 260 253 255 265 262 254
282 281 269 274 278 288 297 301 301 299 300 302 304 315 318 317 313 305 285 254 211 222 236 244 237 229 236 247 251 255 260 261 255 251 249 253 267 267 256 259 273 274 267 260